Flag for Ecuador Weather past 2 weeks in Guayaquil, Ecuador

Now
79 °F

Passing clouds.


Feels Like: 82 °F
Forecast: 76 / 88 °F
Wind: 3 mph from East

Location: Guayaquil / Simon Bolivar

Current Time: May 23, 2015 at 4:48:06 AM

Latest Report: May 23, 2015 at 4:00 AM


Visibility: N/A

Pressure: 29.86 "Hg

Humidity: 84%

Dew point: 73 °F

Location of GuayaquilLocation

Historic Weather in Guayaquil — Graph

°F

Guayaquil temperature yesterday

Maximum temperature yesterday: 90 °F (at 1:00 PM)
Minimum temperature yesterday: 75 °F (at 6:00 AM)
Average temperature yesterday: 83 °F

Past Weeks' High & Low Weather Summary

 TemperatureHumidityPressure
High93 °F (May 13, 4:00 PM)100% (May 15, 12:00 AM)29.92 "Hg (May 15, 12:00 AM)
Low75 °F (May 15, 12:00 AM)52% (May 17, 4:00 PM)29.65 "Hg (May 11, 3:00 PM)
Average82 °F78%29.80 "Hg
* Reported May 8 3:00 AM — May 23 3:00 AM, Guayaquil, Weather by CustomWeather, © 2015

Note: Actual official high and low records may vary slightly from our data, if they occured in-between our weather recording intervals... More about our weather records

Advertising

Guayaquil weather history for previous 24 hours

 ConditionsComfort  
Time TempWeatherWind HumidityBarometerVisibility
3:00 AM
Sat, May 23
81 °FPassing clouds.N/A70%29.86 "HgN/A
2:00 AM79 °FPartly cloudy.6 mph79%29.86 "HgN/A
1:00 AM79 °FPassing clouds.9 mph84%29.86 "HgN/A
12:00 AM79 °FPassing clouds.9 mph79%29.86 "HgN/A
11:00 PM
Fri, May 22
79 °FPartly cloudy.7 mph79%N/AN/A
10:00 PM81 °FPartly cloudy.10 mph74%29.86 "HgN/A
9:00 PM81 °FPartly cloudy.13 mph70%29.83 "HgN/A
8:00 PM82 °FPassing clouds.14 mph70%29.83 "HgN/A
7:00 PM84 °FPartly cloudy.14 mph70%29.80 "HgN/A
6:00 PM84 °FBroken clouds.10 mph74%29.77 "HgN/A
5:00 PM86 °FScattered showers. Scattered clouds.9 mph70%29.77 "HgN/A
4:00 PM88 °FScattered clouds.3 mph70%29.74 "HgN/A
3:00 PM90 °FBroken clouds.5 mph63%29.77 "HgN/A
2:00 PM88 °FBroken clouds.5 mph70%29.80 "HgN/A
1:00 PM90 °FBroken clouds.7 mph67%29.83 "HgN/A
12:00 PM88 °FScattered clouds.7 mph66%29.83 "HgN/A
11:00 AM88 °FPassing clouds.7 mph66%29.86 "HgN/A
9:00 AM81 °FScattered showers. Broken clouds.7 mph84%N/AN/A
8:00 AM77 °FOvercast.2 mph94%29.86 "HgN/A
7:00 AM77 °FPartly sunny.2 mph89%29.86 "HgN/A
6:00 AM75 °FPassing clouds.3 mph94%29.86 "HgN/A
Weather by CustomWeather, © 2015

See weather overviewHow to use our weather pages